Flag for United Kingdom

Past Weather in Doncaster, England, United Kingdom — Yesterday and Last 2 Weeks

Now
52 °F

Scattered clouds.


Feels Like: 50 °F
Forecast: 55 / 46 °F
Wind: 6 mph from Southwest

Location: Scampton
Current Time: Sep 24, 2020 at 8:22:29 pm
Latest Report: Sep 24, 2020 at 6:50 pm
Visibility: N/A
Pressure29.33 "Hg
Humidity: 67%
Dew Point: 41 °F
Location of DoncasterLocation

Past Weather in Doncaster — Graph

°F

Doncaster Temperature Yesterday

Maximum temperature yesterday: 61 °F (at 12:50 am)
Minimum temperature yesterday: 50 °F (at 7:50 pm)
Average temperature yesterday: 56 °F

High & Low Weather Summary for the Past Weeks

 TemperatureHumidityPressure
High81 °F (Sep 15, 1:50 pm)100% (Sep 10, 6:50 am)30.48 "Hg (Sep 10, 6:50 am)
Low43 °F (Sep 10, 5:50 am)25% (Sep 22, 4:50 pm)29.30 "Hg (Sep 24, 9:50 am)
Average58 °F78%30.04 "Hg
* Reported Sep 9 6:50 pm — Sep 24 6:50 pm, Doncaster. Weather by CustomWeather, © 2020

Note: Actual official high and low records may vary slightly from our data, if they occured in-between our weather recording intervals... More about our weather records

Doncaster Weather History for the Previous 24 Hours

Scroll right to see more
 ConditionsComfort  
Time TempWeatherWind HumidityBarometerVisibility
6:50 pm
Thu, Sep 24
52 °FScattered clouds.6 mph67%29.33 "HgN/A
5:50 pm55 °FPassing clouds.5 mph59%29.33 "HgN/A
4:50 pm55 °FSunny.9 mph59%29.33 "HgN/A
3:50 pm55 °FSunny.10 mph59%29.33 "HgN/A
2:50 pm57 °FPassing clouds.13 mph55%29.33 "HgN/A
1:50 pm57 °FScattered showers. Partly sunny.17 mph55%29.33 "HgN/A
12:50 pm55 °FScattered clouds.15 mph63%29.33 "HgN/A
11:50 am55 °FPartly sunny.16 mph67%29.33 "HgN/A
10:50 am55 °FPartly sunny.17 mph72%29.30 "HgN/A
9:50 am50 °FBroken clouds.14 mph88%29.30 "HgN/A
8:50 am46 °FRain showers. Broken clouds.10 mph100%29.33 "HgN/A
7:50 am46 °FLight rain. Overcast.7 mph93%29.33 "Hg4 mi
6:50 am46 °FOvercast.7 mph93%29.36 "HgN/A
5:50 am45 °FPassing clouds.8 mph93%29.39 "HgN/A
4:50 am45 °FPassing clouds.8 mph93%29.39 "HgN/A
3:50 am45 °FPassing clouds.9 mph100%29.39 "HgN/A
2:50 am46 °FPassing clouds.7 mph100%29.39 "HgN/A
1:50 am46 °FPassing clouds.8 mph93%29.39 "Hg5 mi
12:50 am48 °FPartly cloudy.9 mph100%29.39 "Hg6 mi
11:50 pm
Wed, Sep 23
50 °FPassing clouds.10 mph94%29.39 "HgN/A
10:50 pm50 °FPartly cloudy.10 mph94%29.36 "Hg2 mi
9:50 pm50 °FPassing clouds.10 mph94%29.39 "HgN/A
8:50 pm50 °FPartly cloudy.10 mph100%29.39 "Hg5 mi
Weather by CustomWeather, © 2020

See weather overview